Regional Weather Roundup
Issued by NWS

Home | Current Version | Previous Version | Graphics & Text | Print | Product List | Glossary On
Versions: 1 2 3 4 5 6 7 8 9 10 11 12 13 14 15 16 17 18 19 20 21 22 23 24 25 26 27 28 29 30 31 32 33 34 35 36 37 38 39 40 41 42 43 44 45 46 47 48 49 50
465
ASUS44 KLIX 311005
RWRLA
LOUISIANA WEATHER ROUNDUP
NATIONAL WEATHER SERVICE NEW ORLEANS LA
500 AM CDT FRI OCT 31 2014

NOTE: "FAIR" INDICATES FEW OR NO CLOUDS BELOW 12,000 FEET WITH NO
      SIGNIFICANT WEATHER AND/OR OBSTRUCTIONS TO VISIBILITY.
      SKY/WX - SKY CONDITION AND SIGNIFICANT WEATHER.
      TMP - AIR TEMPERATURE.    DP   - DEWPOINT TEMPERATURE.
      RH  - RELATIVE HUMIDITY.  PRES - PRESSURE.
      HX  - HEAT INDEX.         WCI  - WIND CHILL INDEX.

*  THESE STATIONS ARE NOT NWS OR FAA STATIONS AND ARE NOT UNDER
   NWS QUALITY CONTROL.

LAZ040-048-061>063-065-066-069-311100-
SOUTHEAST LOUISIANA

CITY           SKY/WX    TMP DP  RH WIND       PRES   REMARKS
N.O. AUDUBON     N/A     56  55  99 MISG        N/A
N.O. INTL ARPT CLEAR     57  50  77 CALM      30.03F
N.O. LAKEFRONT CLEAR     65  49  56 N10       30.03F
N.O. DOWNTOWN* FAIR      63  46  55 CALM      30.04S
SLIDELL        CLEAR     45  41  86 CALM      30.02F
BATON ROUGE    CLEAR     48  46  93 CALM      30.04S
BOOTHVILLE     CLEAR     65  50  58 N7        30.02S
BELLE CHASSE   CLEAR     50  45  83 CALM      30.03S
BOGALUSA*        N/A     43  40  90 CALM      30.05S
NEW ROADS*     FAIR      47  46  95 CALM      30.05S
GONZALES*      FAIR      48  48 100 CALM      30.04S
HAMMOND*       CLEAR     46  43  87 CALM      30.05S
HOUMA*         CLEAR     53  48  82 CALM      30.04S
PORT FOURCHON* SUNNY     63  54  72 N7        30.06S

$$

LAZ041-044-053-054-311100-
SOUTHWEST LOUISIANA

CITY           SKY/WX    TMP DP  RH WIND       PRES   REMARKS
LAKE CHARLES   CLEAR     51  49  92 CALM      30.07S
LAFAYETTE      CLEAR     54  46  74 CALM      30.06S
PATTERSON      CLEAR     52  48  87 CALM      30.07S
SALT POINT       N/A     56  51  84 CALM      30.04F
NEW IBERIA     PTCLDY    50  47  89 CALM      30.06F
CHENAULT AIRPK NOT AVBL

$$

LAZ027-028-311100-
CENTRAL LOUISIANA

CITY           SKY/WX    TMP DP  RH WIND       PRES   REMARKS
FORT POLK      CLEAR     52  51  95 W1        30.07S
ALEXANDRIA INT CLEAR     46  45  96 CALM      30.05S
ALEXANDRIA     CLEAR     46  44  93 W3        30.05F

$$

LAZ001-002-311100-
NORTHWEST LOUISIANA

CITY           SKY/WX    TMP DP  RH WIND       PRES   REMARKS
SHREVEPORT     CLEAR     52  47  83 NW8       30.09R
BARKSDALE AFB  CLEAR     49  45  88 NW5       30.09R
DTN SHREVEPORT CLEAR     53  46  77 NW5       30.09R

$$

LAZ014-016-311100-
NORTHEAST LOUISIANA

CITY           SKY/WX    TMP DP  RH WIND       PRES   REMARKS
MONROE         CLEAR     52  46  80 N7        30.06R
TALLULAH       CLEAR     42  41  96 CALM      30.03R

$$




USA.gov is the U.S. government's official web portal to all federal, state and local government web resources and services.